Flag for U.S.A. Weather past 2 weeks in Citrus Heights, California, U.S.A.

Now
54 °F

Clear.


Feels Like: 50 °F
Forecast: 54 / 82 °F
Wind: 14 mph from Southeast

Location: Sacramento International Airport

Current Time: May 25, 2015 at 1:22:47 AM

Latest Report: May 25, 2015 at 12:53 AM


Visibility: 10 mi

Pressure: 29.88 "Hg

Humidity: 83%

Dew point: 49 °F

Location of Citrus HeightsLocation

Historic Weather in Citrus Heights — Graph

°F

Citrus Heights temperature yesterday

Maximum temperature yesterday: 80 °F (at 2:53 PM)
Minimum temperature yesterday: 54 °F (at 5:53 AM)
Average temperature yesterday: 66 °F

Past Weeks' High & Low Weather Summary

 TemperatureHumidityPressure
High80 °F (May 24, 2:53 PM)89% (May 10, 6:53 AM)30.07 "Hg (May 10, 6:53 AM)
Low49 °F (May 12, 5:53 AM)25% (May 12, 5:53 PM)29.71 "Hg (May 14, 4:53 PM)
Average62 °F62%29.91 "Hg
* Reported May 9 11:53 PM — May 24 11:53 PM, Citrus Heights, Weather by CustomWeather, © 2015

Note: Actual official high and low records may vary slightly from our data, if they occured in-between our weather recording intervals... More about our weather records

Advertising

Citrus Heights weather history for previous 24 hours

 ConditionsComfort  
Time TempWeatherWind HumidityBarometerVisibility
11:53 PM
Sun, May 24
55 °FClear.13 mph80%29.88 "Hg10 mi
10:53 PM56 °FClear.13 mph77%29.88 "Hg10 mi
9:53 PM59 °FClear.15 mph72%29.87 "Hg10 mi
8:53 PM63 °FSunny.14 mph68%29.85 "Hg10 mi
7:53 PM70 °FSunny.15 mph53%29.83 "Hg10 mi
6:53 PM77 °FSunny.14 mph44%29.82 "Hg10 mi
5:53 PM80 °FSunny.14 mph41%29.82 "Hg10 mi
4:53 PM80 °FSunny.15 mph39%29.84 "Hg10 mi
3:53 PM80 °FSunny.18 mph36%29.86 "Hg10 mi
2:53 PM80 °FSunny.16 mph39%29.88 "Hg10 mi
1:53 PM79 °FSunny.9 mph42%29.89 "Hg10 mi
12:53 PM78 °FSunny.8 mph43%29.90 "Hg10 mi
11:53 AM77 °FSunny.5 mph47%29.92 "Hg10 mi
10:53 AM71 °FSunny.6 mph55%29.94 "Hg10 mi
9:53 AM67 °FSunny.7 mph61%29.95 "Hg10 mi
8:53 AM62 °FSunny.5 mph70%29.96 "Hg10 mi
7:53 AM58 °FSunny.3 mph81%29.95 "Hg10 mi
6:53 AM56 °FSunny.5 mph84%29.94 "Hg10 mi
5:53 AM54 °FClear.3 mph83%29.93 "Hg10 mi
4:53 AM55 °FClear.3 mph80%29.93 "Hg10 mi
3:53 AM56 °FClear.6 mph77%29.94 "Hg10 mi
2:53 AM57 °FClear.6 mph78%29.95 "Hg10 mi
1:53 AM57 °FClear.9 mph78%29.96 "Hg10 mi
Weather by CustomWeather, © 2015

See weather overviewHow to use our weather pages